116  
ASUS43 KIWX 180910  
RWRIWX  
 
KIWX WEATHER ROUNDUP  
NATIONAL WEATHER SERVICE NORTHERN INDIANA  
500 AM EDT MON JUN 18 2018  
 
NOTE: "FAIR" INDICATES FEW OR NO CLOUDS BELOW 12,000 FEET WITH NO  
SIGNIFICANT WEATHER AND/OR S TO VISIBILITY
.  
 
* THESE STATIONS ARE NOT UNDER NWS QUALITY CONTROL. THEY ALSO MAY NOT  
REPORT WEATHER SUCH AS PRECIPITATION OR FOG.
 
 
INZ001>027-181000-  
NORTHERN INDIANA  
 
CITY SKY/WX TMP DP RH WIND PRES REMARKS
 
GARY* FAIR 81 73 77 SW7 29.97S  
VALPARAISO FAIR 79 74 84 SW8 29.99F  
LAPORTE* FAIR 77 73 87 SW7 30.00S  
KNOX* FAIR 77 72 83 SW9 29.99S  
SOUTH BEND FAIR 77 72 84 SW10 29.99F  
GOSHEN FAIR 78 73 84 SW9 30.00S  
MONTICELLO* FAIR 76 73 92 SW6 30.01S  
LOGANSPORT* FAIR 73 72 94 SW6 30.03S  
ROCHESTER* FAIR 79 72 78 SW6 30.02S  
WARSAW* FAIR 79 72 78 SW8 30.02S  
AUBURN* FAIR 77 72 83 SW5 30.03S  
FORT WAYNE FAIR 76 73 91 SW8 30.03S  
HUNTINGTON* FAIR 77 73 88 SW5 30.02F  
MARION* FAIR N/A N/A N/A CALM 30.04F  
 

 
INZ028>050-181000-  
CENTRAL INDIANA  
 
CITY SKY/WX TMP DP RH WIND PRES REMARKS
 
LAFAYETTE FAIR 75 72 90 CALM 30.01S  
KOKOMO* FAIR 77 72 84 SW8 30.04S  
MUNCIE* FAIR 79 72 79 SW6 30.05S  
INDIANAPOLIS FAIR 75 72 90 SW7 30.05S  
 

 
MIZ043>046-050>051-056>058-064>065-071>073-077>080-181000-  
SOUTHWEST LOWER MICHIGAN  
 
CITY SKY/WX TMP DP RH WIND PRES REMARKS
 
BATTLE CREEK FAIR 78 72 81 SW10 29.98F  
BENTON HARBOR FAIR 82 71 69 SW10 29.95F  
COLDWATER* FAIR 78 71 78 SW7 30.00S  
HILLSDALE* FAIR 77 70 78 SW6 30.01S  
HOLLAND FAIR 81 71 71 SW18G26 29.93F  
GRAND RAPIDS FAIR 79 72 79 SW9 29.94S  
KALAMAZOO FAIR 78 71 79 SW8 29.97F  
STURGIS* FAIR 77 73 87 SW7 29.99S  
THREE RIVERS* FAIR 77 72 85 SW6 29.98F  
 

 
OHZ001>008-015>018-024>025-181000-  
NORTHWEST OHIO  
 
CITY SKY/WX TMP DP RH WIND PRES REMARKS
 
WAUSEON* FAIR 79 79 100 SW8 30.00S  
DEFIANCE FAIR 78 72 81 SW6 30.01S  
FINDLAY FAIR 77 72 84 SW7 30.02S  
TOLEDO EXPRESS FAIR 79 75 87 SW8 29.99F  
TOLEDO METCALF FAIR 78 72 81 SW7 30.00S  
 

 
AND FOR LAKE MICHIGAN COASTAL AND OPEN LAKE BUOY OBSERVATIONS  
 
STATION/POSITION TEMP WIND PRES VSBY WAVE
 
AIR SEA DIR/SP/G HT/PER  
(F) (DEG/KT/KT) (MB) (MI) (FT/S)  
CALUMET HARBOR 80 200/ 8/ 10 1014.2R  
MICHIGAN CITY 79 180/ 15/ 18 N/A  
BURNS HARBOR 78 200/ 13/ 17 1014.9F  
SAINT JOSEPH 80 200/ 13/ 18 1014.6  
SOUTH LAKE BUOY 64 58 200/ 12/ 12 1012.9F 1/ 3  
4 MI NW BRIDGMAN 75 71 250/ 10/ 12 1014.0 1/ 3  
MICHIGAN CITY 74 69 230/ 10/ 12 N/A 1/ 2  
 

 

 
 
 
CLICK HERE TO GO TO PREVIOUS BULLETINS.

The Nexlab IN Page
The Nexlab OH Page
The Nexlab MI Page Main Text Page